Weather History for Cloquet, MN

Change the Weather History Date:

Tuesday, March 25, 2014

  Actual Average Record
Temperature  
Mean Temperature 10 °F -  
Max Temperature 19 °F 38 °F 51 °F (1998)
Min Temperature 0 °F 20 °F 0 °F (2002)
Degree Days  
Heating Degree Days 56    
Moisture  
Dew Point -3 °F    
Average Humidity 56    
Maximum Humidity 78    
Minimum Humidity 42    
Precipitation  
Precipitation 0.00 in - - ()
Sea Level Pressure  
Sea Level Pressure 30.10 in    
Wind  
Wind Speed 11 mph (WNW)    
Max Wind Speed 22 mph    
Max Gust Speed 26 mph    
Visibility 10 miles    
Events      
Averages and records for this station are not official NWS values.
T = Trace of Precipitation, MM = Missing Value Source: NWS Daily Summary

Daily Weather History Graph

Daily Weather History Graph

Search for Another Location

Airport:

Trip Planner

Search our weather history database for the weather conditions in past years. The results will help you decide how hot, cold, wet, or windy it might be!

Date:

Astronomy

Mar. 25, 2014 Rise Set
Actual Time 7:03 AM CDT 7:29 PM CDT
Civil Twilight 6:32 AM CDT 7:59 PM CDT
Nautical Twilight 5:56 AM CDT 8:35 PM CDT
Astronomical Twilight 5:19 AM CDT 9:13 PM CDT
Moon 3:43 AM CDT (3/25) 1:43 PM CDT (3/25)
Length of Visible Light 13h 27m
Length of Day
12h 26m
Waning Crescent, 32% of the Moon is Illuminated
Mar 25
Waning Crescent
Mar 30
New
Apr 7
First Quarter
Apr 15
Full
Apr 22
Last Quarter

Hourly Weather History & Observations

Time (CDT) Temp. Windchill Dew Point Humidity Pressure Visibility Wind Dir Wind Speed Gust Speed Precip Events Conditions
12:17 AM 10.4 °F -3.3 °F -2.2 °F 57% 30.05 in 10.0 mi WNW 10.4 mph - N/A   Clear
12:37 AM 10.4 °F -1.5 °F -2.2 °F 57% 30.05 in 10.0 mi WNW 8.1 mph - N/A   Scattered Clouds
12:56 AM 8.6 °F -10.0 °F -2.2 °F 62% 30.05 in 10.0 mi NW 18.4 mph 23.0 mph N/A   Scattered Clouds
1:17 AM 8.6 °F -8.3 °F -2.2 °F 62% 30.06 in 10.0 mi NW 15.0 mph 24.2 mph N/A   Clear
1:37 AM 8.6 °F -7.0 °F -5.8 °F 52% 30.07 in 10.0 mi NW 12.7 mph 25.3 mph N/A   Clear
1:56 AM 8.6 °F -8.3 °F -7.6 °F 48% 30.07 in 10.0 mi NW 15.0 mph 25.3 mph N/A   Clear
2:17 AM 6.8 °F -10.7 °F -7.6 °F 52% 30.08 in 10.0 mi NW 15.0 mph 18.4 mph N/A   Clear
2:37 AM 6.8 °F -9.3 °F -7.6 °F 52% 30.08 in 10.0 mi NW 12.7 mph 16.1 mph N/A   Clear
2:56 AM 6.8 °F -7.8 °F -7.6 °F 52% 30.08 in 10.0 mi WNW 10.4 mph 16.1 mph N/A   Scattered Clouds
3:17 AM 6.8 °F -5.9 °F -7.6 °F 52% 30.08 in 10.0 mi WNW 8.1 mph - N/A   Scattered Clouds
3:36 AM 5.0 °F -10.8 °F -7.6 °F 56% 30.08 in 10.0 mi WNW 11.5 mph - N/A   Clear
3:57 AM 5.0 °F -6.9 °F -7.6 °F 56% 30.09 in 10.0 mi WNW 6.9 mph - N/A   Clear
4:17 AM 3.2 °F -11.3 °F -5.8 °F 66% 30.09 in 10.0 mi WNW 9.2 mph - N/A   Clear
4:36 AM 3.2 °F -10.3 °F -5.8 °F 66% 30.09 in 10.0 mi WNW 8.1 mph 16.1 mph N/A   Clear
4:57 AM 3.2 °F -9.1 °F -5.8 °F 66% 30.10 in 10.0 mi West 6.9 mph - N/A   Clear
5:17 AM 1.4 °F -12.5 °F -5.8 °F 72% 30.11 in 10.0 mi WNW 8.1 mph - N/A   Clear
5:36 AM 1.4 °F -13.5 °F -5.8 °F 72% 30.11 in 10.0 mi WNW 9.2 mph - N/A   Clear
5:57 AM 1.4 °F -14.5 °F -5.8 °F 72% 30.12 in 10.0 mi WNW 10.4 mph - N/A   Clear
6:17 AM 1.4 °F -13.5 °F -5.8 °F 72% 30.12 in 10.0 mi WNW 9.2 mph - N/A   Clear
6:36 AM 1.4 °F -13.5 °F -5.8 °F 72% 30.12 in 10.0 mi WNW 9.2 mph - N/A   Clear
6:57 AM 1.4 °F -13.5 °F -5.8 °F 72% 30.13 in 10.0 mi WNW 9.2 mph - N/A   Clear
7:17 AM -0.4 °F -17.6 °F -5.8 °F 78% 30.14 in 10.0 mi West 11.5 mph - N/A   Clear
7:36 AM -0.4 °F -17.6 °F -5.8 °F 78% 30.14 in 10.0 mi WNW 11.5 mph - N/A   Clear
7:57 AM 1.4 °F -14.5 °F -7.6 °F 66% 30.14 in 10.0 mi WNW 10.4 mph - N/A   Clear
8:16 AM 1.4 °F -16.1 °F -5.8 °F 72% 30.15 in 10.0 mi WNW 12.7 mph 16.1 mph N/A   Clear
8:37 AM 3.2 °F -13.1 °F -5.8 °F 66% 30.15 in 10.0 mi WNW 11.5 mph 17.3 mph N/A   Clear
8:56 AM 3.2 °F -13.1 °F -5.8 °F 66% 30.14 in 10.0 mi WNW 11.5 mph - N/A   Clear
9:17 AM 5.0 °F -10.8 °F -5.8 °F 61% 30.15 in 10.0 mi WNW 11.5 mph - N/A   Clear
9:37 AM 6.8 °F -6.9 °F -5.8 °F 56% 30.15 in 10.0 mi WNW 9.2 mph - N/A   Clear
9:57 AM 6.8 °F -7.8 °F -4.0 °F 61% 30.15 in 10.0 mi WNW 10.4 mph 17.3 mph N/A   Scattered Clouds
10:16 AM 8.6 °F -7.7 °F -4.0 °F 57% 30.16 in 10.0 mi WNW 13.8 mph 21.9 mph N/A   Scattered Clouds
10:37 AM 8.6 °F -8.9 °F -2.2 °F 62% 30.16 in 10.0 mi West 16.1 mph 20.7 mph N/A   Scattered Clouds
10:57 AM 10.4 °F -6.6 °F -2.2 °F 57% 30.15 in 10.0 mi WNW 16.1 mph 21.9 mph N/A   Scattered Clouds
11:16 AM 10.4 °F -6.6 °F -2.2 °F 57% 30.15 in 10.0 mi WNW 16.1 mph 20.7 mph N/A   Scattered Clouds
11:37 AM 12.2 °F -3.7 °F -2.2 °F 53% 30.15 in 10.0 mi WNW 15.0 mph 20.7 mph N/A   Mostly Cloudy
11:56 AM 12.2 °F -4.8 °F -2.2 °F 53% 30.14 in 7.0 mi West 17.3 mph 20.7 mph N/A   Mostly Cloudy
12:16 PM 14.0 °F -2.5 °F -0.4 °F 53% 30.14 in 10.0 mi WNW 17.3 mph 23.0 mph N/A   Mostly Cloudy
12:37 PM 15.8 °F -0.2 °F -0.4 °F 49% 30.13 in 10.0 mi West 17.3 mph 24.2 mph N/A   Mostly Cloudy
12:56 PM 15.8 °F 0.9 °F -0.4 °F 49% 30.13 in 10.0 mi WNW 15.0 mph 21.9 mph N/A   Mostly Cloudy
1:16 PM 15.8 °F 0.3 °F -0.4 °F 49% 30.13 in 10.0 mi WNW 16.1 mph 25.3 mph N/A   Overcast
1:37 PM 15.8 °F -1.1 °F -0.4 °F 49% 30.12 in 10.0 mi West 19.6 mph 26.5 mph N/A   Mostly Cloudy
1:56 PM 15.8 °F -1.9 °F -2.2 °F 45% 30.11 in 10.0 mi WNW 21.9 mph 26.5 mph N/A   Scattered Clouds
2:17 PM 17.6 °F 2.2 °F -0.4 °F 45% 30.10 in 10.0 mi West 17.3 mph 24.2 mph N/A   Mostly Cloudy
2:37 PM 17.6 °F 3.2 °F -0.4 °F 45% 30.10 in 10.0 mi West 15.0 mph 19.6 mph N/A   Overcast
2:57 PM 17.6 °F 4.3 °F -0.4 °F 45% 30.09 in 10.0 mi WNW 12.7 mph 24.2 mph N/A   Overcast
3:16 PM 17.6 °F 3.7 °F -0.4 °F 45% 30.09 in 10.0 mi West 13.8 mph 23.0 mph N/A   Overcast
3:37 PM 17.6 °F 5.0 °F -0.4 °F 45% 30.09 in 10.0 mi West 11.5 mph 16.1 mph N/A   Mostly Cloudy
3:57 PM 17.6 °F 4.3 °F -0.4 °F 45% 30.08 in 10.0 mi West 12.7 mph 23.0 mph N/A   Overcast
4:16 PM 17.6 °F 3.7 °F -0.4 °F 45% 30.08 in 10.0 mi West 13.8 mph 21.9 mph N/A   Mostly Cloudy
4:37 PM 19.4 °F 5.0 °F -0.4 °F 42% 30.08 in 10.0 mi West 16.1 mph 24.2 mph N/A   Mostly Cloudy
4:57 PM 19.4 °F 4.5 °F -0.4 °F 42% 30.08 in 10.0 mi West 17.3 mph 23.0 mph N/A   Overcast
5:16 PM 19.4 °F 5.5 °F -0.4 °F 42% 30.08 in 10.0 mi WNW 15.0 mph 23.0 mph N/A   Mostly Cloudy
5:37 PM 19.4 °F 9.5 °F -0.4 °F 42% 30.08 in 10.0 mi West 8.1 mph 19.6 mph N/A   Scattered Clouds
5:56 PM 19.4 °F 5.5 °F -0.4 °F 42% 30.07 in 10.0 mi West 15.0 mph 24.2 mph N/A   Scattered Clouds
6:16 PM 19.4 °F 6.0 °F -0.4 °F 42% 30.08 in 10.0 mi West 13.8 mph 24.2 mph N/A   Mostly Cloudy
6:37 PM 19.4 °F 6.0 °F -0.4 °F 42% 30.08 in 10.0 mi West 13.8 mph 17.3 mph N/A   Mostly Cloudy
6:56 PM 17.6 °F 5.7 °F -0.4 °F 45% 30.08 in 10.0 mi West 10.4 mph 18.4 mph N/A   Mostly Cloudy
7:17 PM 17.6 °F 5.7 °F -2.2 °F 42% 30.08 in 10.0 mi West 10.4 mph 17.3 mph N/A   Scattered Clouds
7:37 PM 17.6 °F 4.3 °F -2.2 °F 42% 30.07 in 10.0 mi West 12.7 mph 17.3 mph N/A   Clear
7:56 PM 15.8 °F 5.1 °F -2.2 °F 45% 30.08 in 10.0 mi West 8.1 mph - N/A   Clear
8:17 PM 14.0 °F 3.9 °F -2.2 °F 49% 30.08 in 10.0 mi West 6.9 mph - N/A   Clear
8:37 PM 14.0 °F 6.5 °F -2.2 °F 49% 30.08 in 10.0 mi West 4.6 mph - N/A   Clear
8:56 PM 12.2 °F 4.3 °F -2.2 °F 53% 30.08 in 10.0 mi West 4.6 mph - N/A   Clear
9:17 PM 12.2 °F 6.1 °F -2.2 °F 53% 30.08 in 10.0 mi West 3.5 mph - N/A   Clear
9:37 PM 10.4 °F 4.0 °F -2.2 °F 57% 30.08 in 10.0 mi WSW 3.5 mph - N/A   Clear
9:56 PM 10.4 °F 4.0 °F -2.2 °F 57% 30.08 in 10.0 mi WSW 3.5 mph - N/A   Clear
10:17 PM 10.4 °F - -2.2 °F 57% 30.08 in 10.0 mi Calm Calm - N/A   Clear
10:37 PM 6.8 °F - -4.0 °F 61% 30.07 in 10.0 mi Calm Calm - N/A   Clear
10:56 PM 3.2 °F -4.2 °F -4.0 °F 72% 30.07 in 10.0 mi WSW 3.5 mph - N/A   Clear
11:17 PM 3.2 °F -4.2 °F -5.8 °F 66% 30.08 in 10.0 mi WSW 3.5 mph - N/A   Clear
11:37 PM 3.2 °F -4.2 °F -5.8 °F 66% 30.07 in 10.0 mi WSW 3.5 mph - N/A   Clear
11:56 PM 1.4 °F - -5.8 °F 72% 30.07 in 10.0 mi Calm Calm - N/A   Clear